When you browse on this site, cookies collect data to enhance your experience and personalize the content and advertising you see.
Visit our Privacy Policy to learn more. By continuing to use the site, you agree to this use of cookies and data.
EN

Hourly Weather Vasilkovka

Today, 6 August, Thursday

Time Temperature Precipitation Wind Pressure Humidity
00:00 +20°C° 0 mm 3 mps 752 mmHg 66%
01:00 +19°C° 0 mm 3 mps 753 mmHg 69%
02:00 +19°C° 0 mm 3 mps 753 mmHg 72%
03:00 +19°C° 0 mm 3 mps 753 mmHg 73%
04:00 +19°C° 0 mm 3 mps 753 mmHg 75%
05:00 +19°C° 0 mm 3 mps 753 mmHg 76%
06:00 +21°C° 0 mm 4 mps 753 mmHg 70%
07:00 +23°C° 0 mm 4 mps 753 mmHg 65%
08:00 +26°C° 0 mm 4 mps 754 mmHg 59%
09:00 +28°C° 0 mm 4 mps 754 mmHg 54%
10:00 +30°C° 0 mm 4 mps 754 mmHg 49%
11:00 +33°C° 0 mm 4 mps 754 mmHg 44%
12:00 +33°C° 0 mm 4 mps 754 mmHg 42%
13:00 +34°C° 0 mm 4 mps 754 mmHg 40%
14:00 +35°C° 0 mm 4 mps 754 mmHg 38%
15:00 +34°C° 0 mm 4 mps 754 mmHg 40%
16:00 +34°C° 0 mm 4 mps 754 mmHg 42%
17:00 +33°C° 0 mm 5 mps 753 mmHg 44%
18:00 +30°C° 0 mm 4 mps 754 mmHg 51%
19:00 +28°C° 0 mm 4 mps 754 mmHg 58%
20:00 +26°C° 0 mm 4 mps 754 mmHg 65%
21:00 +25°C° 0 mm 4 mps 754 mmHg 68%
22:00 +25°C° 0 mm 4 mps 754 mmHg 71%
23:00 +23°C° 0 mm 4 mps 754 mmHg 74%

Tomorrow, 7 August, Friday

Time Temperature Precipitation Wind Pressure Humidity
00:00 +22°C° 0 mm 4 mps 754 mmHg 74%
01:00 +22°C° 0 mm 4 mps 754 mmHg 75%
02:00 +21°C° 0 mm 4 mps 754 mmHg 76%
03:00 +21°C° 0 mm 4 mps 754 mmHg 75%
04:00 +21°C° 0 mm 3 mps 754 mmHg 75%
05:00 +20°C° 0 mm 3 mps 754 mmHg 75%
06:00 +22°C° 0 mm 4 mps 754 mmHg 69%
07:00 +25°C° 0 mm 4 mps 755 mmHg 62%
08:00 +27°C° 0 mm 4 mps 755 mmHg 56%
09:00 +29°C° 0 mm 4 mps 755 mmHg 50%
10:00 +30°C° 0 mm 4 mps 755 mmHg 45%
11:00 +33°C° 0 mm 4 mps 755 mmHg 39%
12:00 +33°C° 0 mm 5 mps 754 mmHg 37%
13:00 +34°C° 0 mm 5 mps 754 mmHg 35%
14:00 +34°C° 0 mm 5 mps 754 mmHg 32%
15:00 +34°C° 0 mm 5 mps 753 mmHg 35%
16:00 +33°C° 0 mm 5 mps 753 mmHg 37%
17:00 +32°C° 0 mm 5 mps 753 mmHg 39%
18:00 +30°C° 0 mm 4 mps 753 mmHg 47%
19:00 +28°C° 0 mm 4 mps 753 mmHg 55%
20:00 +26°C° 0 mm 4 mps 753 mmHg 63%
21:00 +25°C° 0 mm 4 mps 753 mmHg 68%
22:00 +23°C° 0 mm 4 mps 753 mmHg 72%
23:00 +23°C° 0 mm 5 mps 753 mmHg 77%

Day after tomorrow, 8 August, Saturday

Time Temperature Precipitation Wind Pressure Humidity
00:00 +22°C° 0 mm 5 mps 753 mmHg 78%
01:00 +21°C° 0 mm 5 mps 753 mmHg 79%
02:00 +21°C° 0 mm 5 mps 753 mmHg 80%
03:00 +20°C° 0 mm 5 mps 753 mmHg 79%
04:00 +20°C° 0 mm 5 mps 753 mmHg 78%
05:00 +19°C° 0 mm 5 mps 753 mmHg 77%
06:00 +21°C° 0 mm 5 mps 753 mmHg 72%
07:00 +22°C° 0 mm 5 mps 753 mmHg 66%
08:00 +23°C° 0 mm 6 mps 753 mmHg 61%
09:00 +26°C° 0 mm 6 mps 753 mmHg 56%
10:00 +27°C° 0 mm 6 mps 753 mmHg 51%
11:00 +29°C° 0 mm 6 mps 753 mmHg 46%
12:00 +29°C° 0 mm 6 mps 752 mmHg 43%
13:00 +29°C° 0 mm 6 mps 752 mmHg 41%
14:00 +30°C° 0 mm 6 mps 752 mmHg 38%
15:00 +29°C° 0 mm 6 mps 752 mmHg 39%
16:00 +29°C° 0 mm 6 mps 751 mmHg 41%
17:00 +28°C° 0 mm 6 mps 751 mmHg 42%
18:00 +26°C° 0 mm 6 mps 751 mmHg 47%
19:00 +25°C° 0 mm 5 mps 752 mmHg 51%
20:00 +22°C° 0 mm 5 mps 752 mmHg 56%
21:00 +21°C° 0 mm 4 mps 752 mmHg 60%
22:00 +20°C° 0 mm 4 mps 752 mmHg 63%
23:00 +19°C° 0 mm 4 mps 752 mmHg 67%

9 August, Sunday

Time Temperature Precipitation Wind Pressure Humidity
00:00 +19°C° 0 mm 4 mps 752 mmHg 68%
01:00 +18°C° 0 mm 4 mps 752 mmHg 70%
02:00 +17°C° 0 mm 4 mps 752 mmHg 72%
03:00 +17°C° 0 mm 4 mps 752 mmHg 73%
04:00 +17°C° 0 mm 4 mps 752 mmHg 74%
05:00 +15°C° 0 mm 4 mps 752 mmHg 75%
06:00 +18°C° 0 mm 4 mps 752 mmHg 67%
07:00 +21°C° 0 mm 5 mps 752 mmHg 59%
08:00 +23°C° 0 mm 5 mps 752 mmHg 50%
09:00 +25°C° 0 mm 5 mps 752 mmHg 46%
10:00 +27°C° 0 mm 5 mps 752 mmHg 42%
11:00 +28°C° 0 mm 5 mps 751 mmHg 38%
12:00 +28°C° 0 mm 5 mps 751 mmHg 37%
13:00 +29°C° 0 mm 5 mps 751 mmHg 36%
14:00 +29°C° 0 mm 5 mps 751 mmHg 35%
15:00 +29°C° 0 mm 5 mps 750 mmHg 37%
16:00 +28°C° 0 mm 5 mps 750 mmHg 40%
17:00 +28°C° 0 mm 5 mps 750 mmHg 42%
18:00 +26°C° 0 mm 5 mps 750 mmHg 48%
19:00 +23°C° 0 mm 4 mps 750 mmHg 55%
20:00 +21°C° 0 mm 3 mps 750 mmHg 61%
21:00 +21°C° 0 mm 3 mps 750 mmHg 62%
22:00 +20°C° 0 mm 2 mps 750 mmHg 63%
23:00 +20°C° 0 mm 2 mps 751 mmHg 64%

10 August, Monday

Time Temperature Precipitation Wind Pressure Humidity
00:00 +20°C° 0 mm 2 mps 750 mmHg 65%
01:00 +19°C° 0 mm 2 mps 750 mmHg 66%
02:00 +19°C° 0 mm 2 mps 750 mmHg 67%
03:00 +19°C° 0 mm 2 mps 750 mmHg 69%
04:00 +18°C° 0 mm 2 mps 750 mmHg 71%
05:00 +18°C° 0 mm 3 mps 750 mmHg 72%
06:00 +20°C° 0 mm 3 mps 750 mmHg 65%
07:00 +22°C° 0 mm 3 mps 750 mmHg 58%
08:00 +25°C° 0 mm 3 mps 750 mmHg 50%
09:00 +27°C° 0 mm 3 mps 750 mmHg 46%
10:00 +28°C° 0 mm 3 mps 750 mmHg 42%
11:00 +29°C° 0 mm 4 mps 750 mmHg 37%
12:00 +30°C° 0 mm 3 mps 750 mmHg 37%
13:00 +30°C° 0 mm 3 mps 750 mmHg 36%
14:00 +30°C° 0 mm 3 mps 749 mmHg 35%
15:00 +30°C° 0 mm 3 mps 749 mmHg 36%
16:00 +30°C° 0 mm 3 mps 749 mmHg 37%
17:00 +29°C° 0 mm 2 mps 749 mmHg 39%
18:00 +28°C° 0 mm 3 mps 749 mmHg 43%
19:00 +27°C° 0 mm 3 mps 749 mmHg 48%
20:00 +25°C° 0 mm 3 mps 749 mmHg 53%
21:00 +25°C° 0 mm 3 mps 749 mmHg 57%
22:00 +24°C° 0 mm 3 mps 749 mmHg 61%
23:00 +23°C° 0 mm 2 mps 750 mmHg 65%

11 August, Tuesday

Time Temperature Precipitation Wind Pressure Humidity
00:00 +21°C° 0 mm 2 mps 749 mmHg 67%
01:00 +21°C° 0 mm 2 mps 749 mmHg 70%
02:00 +21°C° 0 mm 1 mps 749 mmHg 73%
03:00 +21°C° 0.2 mm 1 mps 749 mmHg 75%
04:00 +21°C° 0.2 mm 1 mps 749 mmHg 78%
05:00 +21°C° 0.2 mm 1 mps 749 mmHg 81%
06:00 +22°C° 0 mm 1 mps 749 mmHg 74%
07:00 +24°C° 0 mm 1 mps 749 mmHg 67%
08:00 +26°C° 0 mm 1 mps 749 mmHg 60%
09:00 +27°C° 0.5 mm 1 mps 749 mmHg 55%
10:00 +28°C° 0.5 mm 2 mps 749 mmHg 50%
11:00 +29°C° 0.5 mm 2 mps 749 mmHg 45%
12:00 +30°C° 0.1 mm 2 mps 749 mmHg 44%
13:00 +30°C° 0.1 mm 2 mps 749 mmHg 42%
14:00 +30°C° 0.1 mm 2 mps 748 mmHg 40%
15:00 +31°C° 0 mm 2 mps 748 mmHg 40%
16:00 +31°C° 0 mm 1 mps 748 mmHg 39%
17:00 +31°C° 0 mm 1 mps 748 mmHg 38%
18:00 +28°C° 0.7 mm 1 mps 748 mmHg 47%
19:00 +26°C° 0.7 mm 2 mps 748 mmHg 56%
20:00 +24°C° 0.7 mm 2 mps 748 mmHg 65%
21:00 +23°C° 0.7 mm 2 mps 748 mmHg 71%
22:00 +21°C° 0.7 mm 2 mps 748 mmHg 76%
23:00 +20°C° 0.7 mm 2 mps 748 mmHg 82%
Show more